Flag for Switzerland Weather past 2 weeks in Opfikon, Zurich, Switzerland

Now
66 °F

Mild.


Feels Like: 66 °F
Forecast: 54 / 73 °F
Wind: 2 mph from Southwest

Location: Zurich Town / Ville.

Current Time: Jul 26, 2014 at 1:54:06 AM

Latest Report: Jul 26, 2014 at 1:00 AM


Visibility: N/A

Pressure: 29.90 "Hg

Humidity: 69%

Dew point: 55 °F

Location of OpfikonLocation

Historic Weather in Opfikon — Graph

°F

Opfikon temperature yesterday

Maximum temperature yesterday: 80 °F (at 5:00 PM)
Minimum temperature yesterday: 59 °F (at 4:00 AM)
Average temperature yesterday: 68 °F

Past Weeks' High & Low Weather Summary

 TemperatureHumidityPressure
High87 °F (Jul 19, 6:00 PM)99% (Jul 23, 1:00 AM)30.19 "Hg (Jul 23, 1:00 AM)
Low54 °F (Jul 11, 12:00 AM)25% (Jul 18, 3:00 PM)29.78 "Hg (Jul 20, 3:00 AM)
Average66 °F75%29.96 "Hg
* Reported Midnight between Jul 10 and Jul 11 — Midnight between Jul 25 and Jul 26, Opfikon, Weather by CustomWeather, © 2014

Note: Actual official high and low records may vary slightly from our data, if they occured in-between our weather recording intervals... More about our weather records

Advertising

Opfikon weather history for previous 24 hours

 ConditionsComfort  
Time TempWeatherWind HumidityBarometerVisibility
12:00 AM
Jul 26
67 °FMild.3 mph68%29.89 "HgN/A
11:00 PM
Jul 25
69 °FMild.3 mph60%29.88 "HgN/A
10:00 PM70 °FMild.3 mph56%29.87 "HgN/A
9:00 PM72 °FMild.6 mph53%29.84 "HgN/A
8:00 PM73 °FOvercast.5 mph49%29.83 "HgN/A
7:00 PM76 °FMild.3 mph41%29.81 "HgN/A
6:00 PM80 °FPleasantly warm.2 mph36%29.78 "HgN/A
5:00 PM80 °FPleasantly warm.3 mph35%29.79 "HgN/A
4:00 PM79 °FWarm.7 mph42%29.82 "HgN/A
3:00 PM80 °FWarm.5 mph42%29.83 "HgN/A
2:00 PM77 °FPassing clouds.5 mph45%29.85 "HgN/A
1:00 PM77 °FMild.2 mph57%29.86 "HgN/A
12:00 PM72 °FMild.3 mph64%29.89 "HgN/A
11:00 AM69 °FMild.3 mph66%29.91 "HgN/A
10:00 AM67 °FMild.3 mph72%29.92 "HgN/A
9:00 AM63 °FMild.2 mph83%29.93 "HgN/A
8:00 AM61 °FSunny.2 mph87%29.94 "HgN/A
7:00 AM59 °FCool.2 mph91%29.94 "HgN/A
6:00 AM59 °FCool.1 mph91%29.93 "HgN/A
5:00 AM59 °FCool.1 mph92%29.93 "HgN/A
4:00 AM59 °FCool.No wind91%29.93 "HgN/A
3:00 AM60 °FCool.1 mph90%29.93 "HgN/A
2:00 AM60 °FCool.No wind87%29.93 "HgN/A
1:00 AM61 °FCool.1 mph85%29.93 "HgN/A
Weather by CustomWeather, © 2014

See weather overviewHow to use our weather pages